Skip Navigation Links weather.gov 
NOAA logo-Select to go to the NOAA homepage NDBC Title GraphicClick to go to NDBC home page   Select to go to the NWS homepage
Home About Us Contact Us
 
 
    
    Station List

 Data Access
    Mobile Access
    Classic Maps
         Recent
         DART®
    Obs Search
    Ship Obs Report
    BuoyCAMs
    TAO
    DODS
    OceanSITES
    HF Radar
    OSMC
    Dial-A-Buoy
    RSS Feeds Image indicating link to RSS feed access page
    Web Widget
    Web Data Guide
    Maintenance Schedule
    Station Status Report

 Program Info
    TAO
    DART®
    IOOS®

 Publications
    NDBC PEA
    NDBC FONSI
    NDBC DQC Handbook

 Visitor Information
 
USA.gov is the U.S. government's official web portal to all federal, state and local government web resources and services.

Station BLTM3 - 8447387 - Borden Flats Light at Fall River, MA Image indicating link to RSS feed of recent meteorological observations for station BLTM3

Owned and maintained by NOAA's National Ocean Service
C-MAN Station
41.704 N 71.174 W (41°42'16" N 71°10'28" W)

Site elevation: 2.1 m above mean sea level
Air temp height: 2.7 m above site elevation
Anemometer height: 16.2 m above site elevation

Latest NWS Marine Forecast

Search And Rescue (SAR) Data

Meteorological Observations from Nearby Stations and Ships Image indicating link to RSS feed of recent meteorological observations near station BLTM3

Regional HF Radar Surface Current Observations

Large icon indicates selected station.
yellow diamond Stations with recent data
red diamond Stations with no data in last 8 hours
     (24 hours for tsunami stations)


Conditions at BLTM3 as of
(12:48 pm EDT)
1648 GMT on 05/24/2019:
     

Click on the graph icon in the table below to see a time series plot of the last five days of that observation.

5-day plot - Wind Direction Wind Direction (WDIR): NNW ( 330 deg true )
5-day plot - Wind Speed Wind Speed (WSPD): 18 kts
5-day plot - Wind Gust Wind Gust (GST): 25 kts
5-day plot - Atmospheric Pressure Atmospheric Pressure (PRES): 29.73 in
5-day plot - Air Temperature Air Temperature (ATMP): 70.7 °F
5-day plot - Wind Speed at 10 Meters Wind Speed at 10 meters (WSPD10M): 17 kts
5-day plot - Wind Speed at 10 Meters Wind Speed at 20 meters (WSPD20M): 19 kts
5-day plot - Wind Speed, Wind Gust and Atmospheric Pressure Combined plot of Wind Speed, Gust, and Air Pressure
NOS Water Level Observation Network Water Level
Previous observations
5-day plot - Wind Direction 5-day plot - Wind Speed 5-day plot - Wind Gust 5-day plot - Wave Height 5-day plot - Dominant Wave Period 5-day plot - Average Period 5-day plot - Mean Wave Direction 5-day plot - Atmospheric Pressure 5-day plot - Pressure Tendency 5-day plot - Air Temperature 5-day plot - Water Temperature 5-day plot - Dew Point 5-day plot - Salinity 5-day plot - Visibility 5-day plot - Tide (above MLLW)
MM DD TIME
(EDT)
WDIR WSPD
kts
GST
kts
WVHT
ft
DPD
sec
APD
sec
MWD PRES
in
PTDY
in
ATMP
°F
WTMP
°F
DEWP
°F
SAL
psu
VIS
nmi
TIDE
ft
052412:42 pmNNW 21 29----29.72- 70.5-----
052412:36 pm NW 27 35----29.72- 70.3-----
052412:30 pmWNW 20 28----29.72- 69.1-----
052412:24 pm NW 23 28----29.72- 69.1-----
052412:18 pm NW 21 28----29.72- 68.9-----
052412:12 pm NW 22 33----29.72- 68.4-----
052412:06 pm NW 21 27----29.72- 68.2-----
052412:00 pm NW 19 28----29.72+0.02 68.4-----
052411:54 am NW 24 31----29.71- 67.8-----
052411:48 am NW 22 33----29.72- 68.2-----
052411:42 am NW 26 35----29.71- 68.2-----
052411:36 am NW 23 33----29.71- 68.4-----
052411:30 am NW 25 31----29.71- 68.5-----
052411:24 am NW 19 26----29.71- 68.4-----
052411:18 am NW 27 35----29.70- 67.6-----
052411:12 am NW 24 30----29.70- 68.4-----
052411:06 am NW 27 37----29.70- 68.2-----
052411:00 am NW 24 34----29.71+0.02 68.4-----
052410:54 am NW 21 27----29.70- 68.2-----
052410:48 am NW 21 29----29.70- 67.8-----
052410:42 am NW 26 35----29.70- 67.3-----
052410:36 am NW 24 34----29.70- 67.1-----
052410:30 amWNW 26 36----29.70- 66.9-----
052410:24 amWNW 21 31----29.70- 66.9-----
052410:18 amWNW 26 33----29.70- 66.7-----
052410:12 amWNW 25 31----29.70- 66.6-----
052410:06 amWNW 29 37----29.69- 66.6-----
052410:00 amWNW 19 23----29.70+0.02 66.6-----
0524 9:54 amWNW 22 33----29.69- 66.4-----
0524 9:48 amWNW 16 21----29.69- 66.2-----
0524 9:42 am W 24 31----29.69- 65.7-----
0524 9:36 amWNW 18 24----29.69- 65.8-----
0524 9:30 amWNW 23 32----29.69- 65.8-----
0524 9:24 amWNW 22 32----29.69- 65.8-----
0524 9:18 amWNW 20 28----29.70- 65.7-----
0524 9:12 amWNW 23 28----29.70- 65.5-----
0524 9:06 amWNW 20 27----29.70- 65.7-----
0524 9:00 amWNW 18 22----29.70+0.02 65.5-----
0524 8:54 amWNW 21 29----29.70- 65.3-----
0524 8:48 amWNW 22 30----29.69- 65.3-----
0524 8:42 amWNW 24 29----29.68- 65.3-----
0524 8:36 amWNW 23 29----29.68- 65.3-----
0524 8:30 amWNW 21 28----29.68- 64.9-----
0524 8:24 amWNW 17 23----29.69- 64.9-----
0524 8:18 amWNW 20 28----29.69- 64.8-----
0524 8:12 am W 22 32----29.69- 64.8-----
0524 8:06 am W 19 24----29.68- 64.6-----
0524 8:00 am W 21 28----29.69+0.01 64.4-----
0524 7:54 am W 20 29----29.69- 64.6-----
0524 7:48 am W 21 30----29.68- 64.6-----
0524 7:42 am W 20 25----29.68- 64.2-----
0524 7:36 am W 21 24----29.68- 64.2-----
0524 7:30 am W 22 27----29.68- 64.4-----
0524 7:24 am W 22 30----29.68- 64.4-----
0524 7:18 am W 19 25----29.68- 64.4-----
0524 7:12 am W 21 25----29.68- 64.4-----
0524 7:06 am W 19 24----29.68- 63.9-----
0524 7:00 am W 20 25----29.68+0.00 63.9-----
0524 6:54 am W 23 27----29.68- 63.9-----
0524 6:48 am W 17 22----29.68- 63.3-----
0524 6:42 am W 17 20----29.67- 63.1-----
0524 6:36 am W 15 19----29.68- 62.6-----
0524 6:30 am W 15 20----29.68- 62.2-----
0524 6:24 amWSW 15 18----29.67- 61.9-----
0524 6:18 amWSW 15 18----29.67- 61.3-----
0524 6:12 am SW 14 16----29.67- 61.2-----
0524 6:06 amWSW 12 13----29.68- 61.2-----
0524 6:00 am SW 13 14----29.68-0.02 61.0-----
0524 5:54 amWSW 14 16----29.67- 61.5-----
0524 5:48 amWSW 15 17----29.67- 61.3-----
0524 5:42 am SW 15 17----29.67- 61.0-----
0524 5:36 am SW 14 16----29.67- 61.0-----
0524 5:30 amWSW 14 16----29.67- 61.3-----
0524 5:24 amWSW 13 15----29.67- 61.0-----
0524 5:18 am SW 13 16----29.67- 60.6-----
0524 5:12 amWSW 12 13----29.67- 61.3-----
0524 5:06 am W 12 12----29.67- 61.3-----
0524 5:00 am W 13 15----29.67-0.07 62.1-----
0524 4:54 am W 16 18----29.67- 62.2-----
0524 4:48 amWSW 14 16----29.67- 61.0-----
0524 4:42 amWSW 14 15----29.67- 60.8-----
0524 4:36 am W 15 17----29.67- 61.0-----
0524 4:30 amWSW 17 20----29.67- 61.3-----
0524 4:24 am SW 17 19----29.67- 61.0-----
0524 4:18 am SW 17 18----29.67- 61.0-----
0524 4:12 am SW 17 19----29.67- 61.2-----
0524 4:06 am SW 16 18----29.67- 60.8-----
0524 4:00 am SW 14 16----29.67-0.13 60.6-----
0524 3:54 am SW 13 15----29.68- 60.1-----
0524 3:48 am SW 11 12----29.68- 59.7-----
0524 3:42 am SW 12 13----29.68- 59.5-----
0524 3:36 am SW 12 14----29.68- 59.5-----
0524 3:30 am SW 13 15----29.69- 59.7-----
0524 3:24 am SW 14 16----29.69- 59.7-----
0524 3:18 am SW 13 16----29.69- 59.7-----
0524 3:12 am SW 12 14----29.69- 60.6-----
0524 3:06 am SW 10 13----29.69- 61.3-----
0524 3:00 am SW 9 13----29.70-0.06 61.0-----
0524 2:54 amSSW 11 12----29.70- 61.2-----
0524 2:48 amSSW 10 12----29.71- 61.2-----
0524 2:42 am SW 10 11----29.71- 61.5-----
0524 2:36 am SW 7 9----29.71- 61.5-----
0524 2:30 amSSW 7 9----29.71- 61.5-----
0524 2:24 amSSW 10 12----29.72- 61.2-----
0524 2:18 amSSW 10 11----29.72- 61.0-----
0524 2:12 amSSW 9 11----29.73- 60.8-----
0524 2:06 amSSW 11 13----29.74- 60.6-----
0524 2:00 amSSW 8 9----29.74-0.04 60.6-----
0524 1:54 amSSW 8 9----29.74- 60.6-----
0524 1:48 am SW 7 9----29.75- 60.4-----
0524 1:42 am SW 10 11----29.76- 60.4-----
0524 1:36 amSSW 10 12----29.76- 60.3-----
0524 1:30 amSSW 10 11----29.77- 59.9-----
0524 1:24 amWSW 6 7----29.77- 59.9-----
0524 1:18 amWSW 8 8----29.77- 60.1-----
0524 1:12 amWSW 7 8----29.78- 60.1-----
0524 1:06 am W 10 13----29.79- 60.1-----
0524 1:00 amWNW 11 14----29.80-0.04 59.9-----
052412:54 amWNW 15 21----29.80- 59.4-----
052412:48 am SW 16 19----29.76- 59.4-----
052412:42 am SW 20 24----29.75- 59.7-----
052412:36 am SW 17 20----29.75- 59.9-----
052412:30 am SW 17 22----29.74- 60.1-----
052412:24 amSSW 16 21----29.74- 60.3-----
052412:18 amSSW 16 20----29.74- 60.3-----
052412:12 amSSW 16 20----29.75- 60.3-----
052412:06 amSSW 14 17----29.76- 60.3-----
052412:00 amSSW 14 17----29.76-0.13 59.9-----
052311:54 pmSSW 15 17----29.78- 59.7-----
052311:48 pm SW 17 19----29.78- 59.9-----
052311:42 pmSSW 16 19----29.78- 59.9-----
052311:36 pmSSW 17 20----29.78- 59.9-----
052311:30 pmSSW 14 19----29.78- 59.7-----
052311:24 pmSSW 14 19----29.78- 59.5-----
052311:18 pmSSW 13 19----29.78- 59.5-----
052311:12 pmSSW 14 17----29.78- 59.4-----
052311:06 pmSSW 15 18----29.78- 59.2-----
052311:00 pmSSW 15 20----29.78-0.12 59.2-----
052310:54 pmSSW 16 22----29.78- 59.2-----
052310:48 pm S 14 19----29.79- 59.0-----
052310:42 pmSSW 13 17----29.80- 58.8-----
052310:36 pm S 13 18----29.80- 58.6-----
052310:30 pm S 13 19----29.80- 58.6-----
052310:24 pm S 15 19----29.81- 58.5-----
052310:18 pmSSW 13 17----29.81- 58.3-----
052310:12 pmSSW 12 18----29.83- 58.3-----
052310:06 pm S 13 19----29.83- 58.3-----
052310:00 pmSSW 13 16----29.84-0.10 58.1-----
0523 9:54 pmSSW 11 13----29.85- 58.1-----
0523 9:48 pmSSW 13 17----29.85- 58.3-----
0523 9:42 pmSSW 14 18----29.85- 58.3-----
0523 9:36 pmSSW 13 17----29.85- 58.3-----
0523 9:30 pmSSW 15 20----29.85- 58.3-----
0523 9:24 pmSSW 15 19----29.86- 58.3-----
0523 9:18 pmSSW 17 22----29.87- 58.3-----
0523 9:12 pmSSW 18 22----29.88- 58.3-----
0523 9:06 pmSSW 19 23----29.88- 58.5-----
0523 9:00 pmSSW 20 24----29.89-0.09 58.6-----
0523 8:54 pm SW 20 26----29.89- 59.0-----
0523 8:48 pm SW 20 27----29.89- 59.4-----
0523 8:42 pmSSW 15 20----29.88- 59.4-----
0523 8:36 pmSSW 15 20----29.88- 59.5-----
0523 8:30 pmSSW 17 21----29.88- 59.7-----
0523 8:24 pmSSW 16 20----29.88- 59.9-----
0523 8:18 pmSSW 14 22----29.88- 59.9-----
0523 8:12 pm S 13 18----29.89- 59.7-----
0523 8:06 pm S 14 19----29.90- 59.7-----
0523 8:00 pmSSW 16 26----29.91-0.12 59.5-----
0523 7:54 pmSSW 15 21----29.91- 59.7-----
0523 7:48 pmSSW 13 19----29.90- 59.5-----
0523 7:42 pm S 14 22----29.90- 59.5-----
0523 7:36 pm S 13 17----29.90- 59.5-----
0523 7:30 pm S 16 21----29.90- 59.5-----
0523 7:24 pm S 15 20----29.91- 59.5-----
0523 7:18 pm S 15 21----29.92- 59.5-----
0523 7:12 pm S 12 17----29.92- 59.5-----
0523 7:06 pm S 11 16----29.93- 59.7-----
0523 7:00 pm S 11 16----29.94-0.12 59.7-----
0523 6:54 pm S 14 20----29.94- 59.9-----
0523 6:48 pm S 15 20----29.94- 60.1-----
0523 6:42 pmSSW 14 18----29.96- 60.1-----
0523 6:36 pm S 14 19----29.96- 60.1-----
0523 6:30 pm S 11 14----29.96- 60.1-----
0523 6:24 pm S 12 19----29.96- 60.1-----
0523 6:18 pm S 12 17----29.95- 60.1-----
0523 6:12 pm S 12 18----29.96- 59.9-----
0523 6:06 pmSSE 10 13----29.96- 59.9-----
0523 6:00 pm S 10 15----29.98-0.10 60.3-----
0523 5:54 pm S 8 13----29.99- 60.3-----
0523 5:48 pm S 7 9----30.00- 59.2-----
0523 5:42 pm SW 9 11----30.01- 59.0-----
0523 5:36 pm SW 12 15----30.01- 58.8-----
0523 5:30 pm SW 12 14----30.02- 59.0-----
0523 5:24 pmWSW 11 13----30.02- 58.8-----
0523 5:18 pmWSW 9 11----30.02- 59.2-----
0523 5:12 pmSSW 11 15----30.03- 60.4-----
0523 5:06 pmSSW 11 15----30.03- 60.4-----
0523 5:00 pmSSW 12 17----30.03-0.07 60.4-----
0523 4:54 pmSSW 12 16----30.03- 60.3-----
0523 4:48 pmSSW 10 17----30.03- 60.4-----
0523 4:42 pmSSW 11 15----30.03- 60.3-----
0523 4:36 pmSSW 12 16----30.03- 60.3-----
0523 4:30 pm S 13 17----30.03- 60.3-----
0523 4:24 pmSSW 15 21----30.03- 60.3-----
0523 4:18 pm S 14 19----30.04- 60.4-----
0523 4:12 pmSSW 13 16----30.04- 60.6-----
0523 4:06 pmSSW 13 22----30.05- 60.6-----
0523 4:00 pmSSW 13 17----30.05-0.09 60.6-----
0523 3:54 pm S 12 17----30.05- 60.4-----
0523 3:48 pmSSW 14 21----30.06- 60.3-----
0523 3:42 pmSSW 15 19----30.06- 60.1-----
0523 3:36 pmSSW 16 23----30.07- 60.3-----
0523 3:30 pmSSW 16 24----30.07- 60.4-----
0523 3:24 pmSSW 16 21----30.06- 60.4-----
0523 3:18 pmSSW 19 22----30.06- 60.1-----
0523 3:12 pmSSW 17 22----30.07- 59.9-----
0523 3:06 pmSSW 15 20----30.07- 59.7-----
0523 3:00 pmSSW 18 23----30.08-0.09 59.5-----
0523 2:54 pmSSW 18 22----30.07- 59.4-----
0523 2:48 pmSSW 17 21----30.07- 59.4-----
0523 2:42 pmSSW 15 21----30.07- 59.4-----
0523 2:36 pmSSW 15 19----30.07- 59.4-----
0523 2:30 pmSSW 17 23----30.08- 59.4-----
0523 2:24 pmSSW 16 22----30.08- 59.4-----
0523 2:18 pmSSW 16 22----30.09- 59.2-----
0523 2:12 pm S 16 21----30.09- 59.2-----
0523 2:06 pm S 14 20----30.09- 59.4-----
0523 2:00 pmSSW 15 19----30.10-0.09 59.4-----
0523 1:54 pmSSW 13 18----30.10- 59.5-----
0523 1:48 pmSSW 13 18----30.10- 59.7-----
0523 1:42 pmSSW 15 19----30.11- 59.5-----
0523 1:36 pmSSW 15 19----30.12- 59.5-----
0523 1:30 pmSSW 17 21----30.12- 59.5-----
0523 1:24 pmSSW 17 21----30.13- 59.4-----
0523 1:18 pmSSW 16 20----30.13- 59.2-----
0523 1:12 pmSSW 15 20----30.13- 59.2-----
0523 1:06 pmSSW 13 19----30.14- 59.2-----
0523 1:00 pmSSW 15 19----30.14-0.07 59.0-----
052312:54 pmSSW 16 20----30.14- 59.0-----

Description of Measurements

Links which are specific to this station are listed below:

Real Time Data in tabular form for the last forty-five days.

Historical Data & Climatic Summaries for quality controlled data for the current month, previous months, and previous years.